map of CJA home
Great Circle Mapper logo
CJA - Airport
Location
City:  Cajamarca, Perú
Name:Major General FAP Armando Revoredo Iglesias
ICAO / IATA:SPJR / CJA

Details
Type:Airport (Aerodrome, Airfield)
Latitude:7°08'21"S (-7.139182)
Longitude:78°29'22"W (-78.489399)
Datum:WGS 1984
Elevation:8781 ft (2676 m)
Variation:1.5°W (WMM2010 magnetic declination)
Runways:1
Longest:8202 × 148 ft (2500 × 45 m), paved

Time
Time Zone:UTC-5
Local Time:

Weather
METAR:SPJR 211730Z 18009KT CAVOK 23/02 Q1027
TAF:SPJR 211100Z 2112/2212 14008KT 9999 BKN040 TX23/2119Z TN04/2211Z
TEMPO 2112/2113 VRB04KT 9000 OVC035
BECMG 2116/2118 14010KT 9999 SCT045
BECMG 2123/2201 13005KT
BECMG 2208/2210 14004KT 9999 BKN030

Related Locations
Nearby:
Farthest:PAN: 12426 mi / 19997 km
Pattani, TH

Find:

   beyond  
but within

Other Information
Maps:
NOTAMs:
Links:
Sources:

  
flag of Perú   

Sectional Chart

Flight Planning
at skyvector.com

Satellite Image

Google Maps Satellite View

 

Copyright © 2004-2014 Karl L. Swartz. All rights reserved.
The Great Circle Mapper name and logo are trademarks of the Great Circle Mapper.
All other trademarks mentioned herein belong to their respective owners.
Please see credits for attibutions and further copyright information.

  Follow gcmap on Facebook Follow gcmap on Twitter

hCard Microformat

Geo Microformat